Location: Amsterdam
(30.7274°N, 84.4357°W)
Time: 05:58:45
(UTC+00:00)

Tiros 1 despin weight - Pass Details

Date: 19 February 2026
Orbit: 556 x 593 km, 48.2° (Epoch: 13 March)

Event Time Altitude Azimuth Distance (km) Brightness Sun altitude
Rises 18:31:28 0° 218° (SW) 2,751 ? 47.1°
Reaches altitude 10° 18:33:46 10° 214° (SW) 1,851 ? 47.0°
Maximum altitude 18:37:54 56° 136° (SE) 665 ? 46.7°
Drops below altitude 10° 18:42:01 10° 58° (ENE) 1,840 ? 46.5°
Sets 18:44:17 0° 54° (NE) 2,734 ? 46.3°
